Location: Unspecified
(45.4615°N, 74.0512°W)
Time: 22:27:45
(UTC-04:00)

Cosmos 2058 - Visible Passes

Search period start: 22 October 2017 00:00
Search period end: 01 November 2017 00:00
Orbit: 564 x 584 km, 82.5° (Epoch: 22 October)

Date Brightness Start Highest point End Pass type
(mag) Time Alt. Az. Time Alt. Az. Time Alt. Az.
22 Oct 6.0 06:41:20 10° SE 06:44:28 20° E 06:47:36 10° NE visible
22 Oct 6.4 19:56:04 10° WNW 19:57:58 13° W 19:59:51 10° WSW visible
23 Oct 5.6 06:44:09 10° SE 06:47:39 26° E 06:51:11 10° NNE visible
23 Oct 2.9 18:20:40 10° N 18:24:52 76° E 18:29:00 10° SSE visible
24 Oct 5.0 06:47:03 10° SSE 06:50:52 34° E 06:54:42 10° NNE visible
24 Oct 3.1 18:23:58 10° N 18:28:09 81° W 18:32:17 10° S visible
25 Oct 4.3 06:50:05 10° SSE 06:54:06 45° E 06:58:08 10° NNE visible
25 Oct 3.6 18:27:18 10° NNW 18:31:25 61° W 18:35:29 10° S visible
26 Oct 3.7 06:53:12 10° S 06:57:20 60° E 07:01:31 10° NNE visible
26 Oct 4.2 18:30:41 10° NNW 18:34:40 45° W 18:38:36 10° SSW visible
27 Oct 3.1 06:56:24 10° S 07:00:36 80° E 07:04:50 10° N visible
27 Oct 4.9 18:34:07 10° NNW 18:37:54 34° W 18:41:38 10° SSW visible
28 Oct 5.4 18:37:37 10° NNW 18:41:06 26° W 18:44:32 10° SW visible
29 Oct 6.4 05:28:53 10° ESE 05:30:47 13° E 05:32:42 10° ENE visible
29 Oct 5.9 18:41:12 10° NW 18:44:17 20° W 18:47:20 10° SW visible
30 Oct 6.0 05:31:15 10° SE 05:33:57 17° E 05:36:40 10° NE visible
30 Oct 6.1 18:44:57 10° NW 18:47:27 16° W 18:49:56 10° WSW visible
31 Oct 5.6 05:33:55 10° SE 05:37:08 22° E 05:40:21 10° NE visible
31 Oct 6.4 18:49:00 10° WNW 18:50:36 12° W 18:52:11 10° WSW visible
